Flag for Canada Weather past 2 weeks in Oakville, Ontario, Canada

Now
73 °F

Mild.


Feels Like: 72 °F
Forecast: 66 / 73 °F
Wind: 5 mph from Southwest

Location: Burlington Piers

Current Time: Sep 2, 2014 at 9:36:18 AM

Latest Report: Sep 2, 2014 at 9:00 AM


Visibility: N/A

Pressure: 29.83 "Hg

Humidity: 85%

Dew point: 68 °F

Location of OakvilleLocation

Historic Weather in Oakville — Graph

°F

Oakville temperature yesterday

Maximum temperature yesterday: 82 °F (at 6:00 PM)
Minimum temperature yesterday: 69 °F (at 8:00 AM)
Average temperature yesterday: 75 °F

Past Weeks' High & Low Weather Summary

 TemperatureHumidityPressure
High85 °F (Aug 26, 5:00 PM)99% (Aug 24, 2:00 AM)30.19 "Hg (Aug 24, 2:00 AM)
Low56 °F (Aug 18, 1:00 PM)35% (Aug 28, 6:00 PM)29.77 "Hg (Sep 1, 11:00 PM)
Average69 °F78%29.99 "Hg
* Reported Aug 18 8:00 AM — Sep 2 8:00 AM, Oakville, Weather by CustomWeather, © 2014

Note: Actual official high and low records may vary slightly from our data, if they occured in-between our weather recording intervals... More about our weather records

Advertising

Oakville weather history for previous 24 hours

 ConditionsComfort  
Time TempWeatherWind HumidityBarometerVisibility
8:00 AM
Sep 2
71 °FMild.3 mph88%29.83 "HgN/A
7:00 AM71 °FMild.3 mph90%29.83 "HgN/A
6:00 AM71 °FMild.5 mph90%29.81 "HgN/A
5:00 AM70 °FMild.3 mph91%29.79 "HgN/A
4:00 AM71 °FMild.3 mph89%29.79 "HgN/A
3:00 AM71 °FMild.5 mph89%29.79 "HgN/A
2:00 AM71 °FMild.6 mph88%29.79 "HgN/A
1:00 AM72 °FMild.7 mph86%29.79 "HgN/A
12:00 AM73 °FMild.9 mph84%29.78 "HgN/A
11:00 PM
Sep 1
77 °FMild.12 mph79%29.77 "HgN/A
10:00 PM79 °FWarm.9 mph68%29.79 "HgN/A
9:00 PM78 °FWarm.7 mph70%29.80 "HgN/A
8:00 PM81 °FWarm.9 mph64%29.81 "HgN/A
7:00 PM81 °FWarm.10 mph63%29.80 "HgN/A
6:00 PM82 °FWarm.13 mph61%29.79 "HgN/A
5:00 PM81 °FWarm.16 mph62%29.80 "HgN/A
4:00 PM81 °FWarm.16 mph63%29.81 "HgN/A
3:00 PM81 °FWarm.16 mph66%29.83 "HgN/A
2:00 PM80 °FWarm.14 mph68%29.86 "HgN/A
1:00 PM79 °FWarm.14 mph72%29.88 "HgN/A
12:00 PM78 °FWarm.10 mph68%29.89 "HgN/A
11:00 AM72 °FMild.3 mph87%29.91 "HgN/A
10:00 AM70 °FMild.2 mph94%29.93 "HgN/A
9:00 AM69 °FMild.No wind95%29.94 "HgN/A
Weather by CustomWeather, © 2014

See weather overviewHow to use our weather pages